Aeroporto :
LOGIN :

Iscrizione | Disclaimer

   EN    FR    IT 

 










Sommario :    VFR   VFR Marginale   IFR   IFR Intensivo   IFR Molto Intensivo
Visibilità : 
Base nubi : 
>= 8 km
>= 3000ft
5 / 8 km
1000 / 3000 ft
1500m / 5 km
500 / 1000 ft
800 / 1500m
200 / 500 ft
< 800m
< 200 ft
Simboli :   Temporali  Nebbia  Neve Forte  Precipitazioni Forti  Vento > 20 kt
SIGMETs :   Varie  Temporali  Ghiacco  Turbolenza  Onda orograficha  Ceneri Vulcaniche






- Altitudine del aeroporto : 289 ft
- Codice IATA : BSK


DAUB - Mohamed Khider

ULTIMO METAR :
  • 051200Z 00000KT 9999 FEW040 36/16 Q1010

METARs OBSOLETI :
  • 051100Z 03004KT 9999 FEW040 35/16 Q1011
  • 051000Z 00000KT 9999 FEW040 34/16 Q1012

TAF COR TAF DAUB
Valido dal 05 a 12 ore il 06 a 12 ore UTC


051100Z 0512/0612 24008KT 9999 FEW040
PROB40
TEMPO 0512/0518 FEW033TCU
BECMG 0522/0524 14008KT
TEMPO 0603/0609 14012G22KT



MetMap, La meteo Aeronautica in un colpo d'occhio ! - Copyright ORBIFLY Dicembre 2007 - Disclaimer

ORBIFLY MET'MAP TEAM :

Programmazione e sviluppo : Alexandra Zaïnal
Concezione : Baudouin d'Aumeries
Aiuto per la programmazione : Marc-Olivier Méhu
Supporto tecnico e logistico : Manuel Goepfert
Aiuto per la traduzione : Arnaldo La Scala

Contatto : metmap@orbifly.com




FONTI E CREDITI :

   NOAA